Zurück zum Katalog

STARLINK-34427

AktivKommunikationVLEO
NORAD 64498·PAYLOAD·🇺🇸 United States

Gestartet Jun 23, 2025 von Cape Canaveral Space Force Station

Loading…

Nächste Überflüge (nächste 24 Stunden)

TLE

AktuellSource: CelesTrak SupGP

Epoche: Sep 15, 2026, 03:03 UTC

1 64498C 25133AC  26258.12756944  .00045830  00000+0  13542-2 0  2580
2 64498  53.1575 314.5937 0001144  94.1210 291.5761 15.34365327    19

Verfolge STARLINK-34427 in Echtzeit mit AllMySat

Download on the App Store